Time,TemperatureF,DewpointF,PressureIn,WindDirection,WindDirectionDegrees,WindSpeedMPH,WindSpeedGustMPH,Humidity,HourlyPrecipIn,Conditions,Clouds,dailyrainin,SoftwareType,DateUTC
2013-09-29 00:08:00,53.0,51.0,30.16,ENE,65,0.0,1.0,94,0.00,,,0.00,weatherlink.com 1.10,2013-09-29 04:08:00,
2013-09-29 00:23:00,52.8,51.0,30.16,ENE,65,0.0,1.0,94,0.00,,,0.00,weatherlink.com 1.10,2013-09-29 04:23:00,
2013-09-29 00:38:00,53.2,52.0,30.16,ENE,69,0.0,3.0,95,0.00,,,0.00,weatherlink.com 1.10,2013-09-29 04:38:00,
2013-09-29 00:53:00,53.2,52.0,30.16,NE,45,0.0,3.0,95,0.00,,,0.00,weatherlink.com 1.10,2013-09-29 04:53:00,
2013-09-29 01:08:00,53.4,52.0,30.16,East,99,0.0,2.0,95,0.00,,,0.00,weatherlink.com 1.10,2013-09-29 05:08:00,
2013-09-29 01:23:00,54.0,52.0,30.16,NNE,27,0.0,4.0,94,0.00,,,0.00,weatherlink.com 1.10,2013-09-29 05:23:00,
2013-09-29 01:38:00,53.6,52.0,30.17,East,82,0.0,4.0,94,0.00,,,0.00,weatherlink.com 1.10,2013-09-29 05:38:00,
2013-09-29 01:53:00,53.4,52.0,30.17,NE,42,0.0,2.0,94,0.00,,,0.00,weatherlink.com 1.10,2013-09-29 05:53:00,
2013-09-29 02:08:00,53.0,51.0,30.17,NE,44,0.0,1.0,94,0.00,,,0.00,weatherlink.com 1.10,2013-09-29 06:08:00,
2013-09-29 02:23:00,53.1,52.0,30.17,NE,44,0.0,2.0,95,0.00,,,0.00,weatherlink.com 1.10,2013-09-29 06:23:00,
2013-09-29 02:38:00,53.7,52.0,30.16,NNE,32,1.0,4.0,94,0.00,,,0.00,weatherlink.com 1.10,2013-09-29 06:38:00,
2013-09-29 02:53:00,54.2,53.0,30.16,NNE,32,0.0,2.0,94,0.00,,,0.00,weatherlink.com 1.10,2013-09-29 06:53:00,
2013-09-29 03:08:00,54.5,53.0,30.16,NNE,32,0.0,3.0,94,0.00,,,0.00,weatherlink.com 1.10,2013-09-29 07:08:00,
2013-09-29 03:23:00,54.8,53.0,30.16,NNE,24,2.0,3.0,94,0.00,,,0.00,weatherlink.com 1.10,2013-09-29 07:23:00,
2013-09-29 03:38:00,55.1,54.0,30.16,NNE,24,0.0,1.0,94,0.00,,,0.00,weatherlink.com 1.10,2013-09-29 07:38:00,
2013-09-29 03:54:00,55.3,54.0,30.16,NNE,24,0.0,0.0,94,0.00,,,0.00,weatherlink.com 1.10,2013-09-29 07:54:00,
2013-09-29 04:09:00,55.7,54.0,30.16,NE,46,0.0,2.0,94,0.00,,,0.00,weatherlink.com 1.10,2013-09-29 08:09:00,
2013-09-29 04:24:00,55.8,54.0,30.15,NE,55,0.0,2.0,94,0.00,,,0.00,weatherlink.com 1.10,2013-09-29 08:24:00,
2013-09-29 04:39:00,56.1,54.0,30.15,NE,45,0.0,2.0,93,0.00,,,0.00,weatherlink.com 1.10,2013-09-29 08:39:00,
2013-09-29 04:54:00,56.1,54.0,30.15,NE,45,0.0,0.0,94,0.00,,,0.00,weatherlink.com 1.10,2013-09-29 08:54:00,
2013-09-29 05:09:00,56.0,54.0,30.15,NE,45,0.0,0.0,94,0.00,,,0.00,weatherlink.com 1.10,2013-09-29 09:09:00,
2013-09-29 05:24:00,55.9,54.0,30.15,NE,45,0.0,1.0,94,0.00,,,0.00,weatherlink.com 1.10,2013-09-29 09:24:00,
2013-09-29 05:39:00,56.1,54.0,30.15,NE,45,0.0,1.0,94,0.00,,,0.00,weatherlink.com 1.10,2013-09-29 09:39:00,
2013-09-29 05:54:00,56.2,55.0,30.15,NE,45,0.0,1.0,94,0.00,,,0.00,weatherlink.com 1.10,2013-09-29 09:54:00,
2013-09-29 06:09:00,56.3,55.0,30.15,NE,45,0.0,2.0,94,0.00,,,0.00,weatherlink.com 1.10,2013-09-29 10:09:00,
2013-09-29 06:24:00,56.4,55.0,30.15,ENE,59,0.0,2.0,94,0.00,,,0.00,weatherlink.com 1.10,2013-09-29 10:24:00,
2013-09-29 06:39:00,56.6,55.0,30.15,NE,39,0.0,3.0,93,0.00,,,0.00,weatherlink.com 1.10,2013-09-29 10:39:00,
2013-09-29 06:54:00,56.8,55.0,30.16,NE,44,1.0,4.0,93,0.00,,,0.00,weatherlink.com 1.10,2013-09-29 10:54:00,
2013-09-29 07:09:00,56.7,55.0,30.16,NE,38,0.0,3.0,94,0.00,,,0.00,weatherlink.com 1.10,2013-09-29 11:09:00,
2013-09-29 07:24:00,56.8,55.0,30.16,ENE,61,2.0,3.0,93,0.00,,,0.00,weatherlink.com 1.10,2013-09-29 11:24:00,
2013-09-29 07:39:00,56.8,55.0,30.16,NE,44,1.0,2.0,93,0.00,,,0.00,weatherlink.com 1.10,2013-09-29 11:39:00,
2013-09-29 07:54:00,56.9,55.0,30.15,ENE,67,1.0,2.0,93,0.00,,,0.00,weatherlink.com 1.10,2013-09-29 11:54:00,
2013-09-29 08:09:00,57.1,55.0,30.15,ENE,73,0.0,2.0,93,0.00,,,0.00,weatherlink.com 1.10,2013-09-29 12:09:00,
2013-09-29 08:24:00,57.7,56.0,30.15,NE,45,1.0,4.0,93,0.00,,,0.00,weatherlink.com 1.10,2013-09-29 12:24:00,
2013-09-29 08:39:00,58.3,56.0,30.15,ENE,58,1.0,5.0,92,0.00,,,0.00,weatherlink.com 1.10,2013-09-29 12:39:00,
2013-09-29 08:54:00,58.6,56.0,30.15,NNE,28,2.0,5.0,91,0.00,,,0.00,weatherlink.com 1.10,2013-09-29 12:54:00,
2013-09-29 09:09:00,58.4,56.0,30.15,ENE,61,4.0,5.0,91,0.00,,,0.00,weatherlink.com 1.10,2013-09-29 13:09:00,
2013-09-29 09:24:00,59.3,56.0,30.16,NNE,19,3.0,4.0,90,0.00,,,0.00,weatherlink.com 1.10,2013-09-29 13:24:00,
2013-09-29 09:39:00,59.6,57.0,30.16,North,5,1.0,4.0,90,0.00,,,0.00,weatherlink.com 1.10,2013-09-29 13:39:00,
2013-09-29 09:54:00,60.1,57.0,30.16,NE,50,2.0,3.0,89,0.00,,,0.00,weatherlink.com 1.10,2013-09-29 13:54:00,
2013-09-29 10:09:00,60.3,57.0,30.16,ENE,72,2.0,5.0,89,0.00,,,0.00,weatherlink.com 1.10,2013-09-29 14:09:00,
2013-09-29 10:24:00,61.6,58.0,30.16,NNE,27,2.0,4.0,87,0.00,,,0.00,weatherlink.com 1.10,2013-09-29 14:24:00,
2013-09-29 10:39:00,62.9,58.0,30.15,NE,45,2.0,4.0,85,0.00,,,0.00,weatherlink.com 1.10,2013-09-29 14:39:00,
2013-09-29 10:54:00,64.2,60.0,30.14,NNE,14,2.0,3.0,85,0.00,,,0.00,weatherlink.com 1.10,2013-09-29 14:54:00,
2013-09-29 11:09:00,65.4,59.0,30.14,NE,44,1.0,5.0,79,0.00,,,0.00,weatherlink.com 1.10,2013-09-29 15:09:00,
2013-09-29 11:24:00,67.1,59.0,30.13,NNE,26,1.0,6.0,76,0.00,,,0.00,weatherlink.com 1.10,2013-09-29 15:24:00,
2013-09-29 11:39:00,68.4,59.0,30.13,ENE,59,3.0,6.0,72,0.00,,,0.00,weatherlink.com 1.10,2013-09-29 15:39:00,
2013-09-29 11:55:00,68.4,58.0,30.12,NW,305,1.0,4.0,70,0.00,,,0.00,weatherlink.com 1.10,2013-09-29 15:55:00,
2013-09-29 12:10:00,68.6,56.0,30.12,NNE,20,5.0,6.0,65,0.00,,,0.00,weatherlink.com 1.10,2013-09-29 16:10:00,
2013-09-29 12:25:00,68.6,55.0,30.12,NNE,32,4.0,8.0,63,0.00,,,0.00,weatherlink.com 1.10,2013-09-29 16:25:00,
2013-09-29 12:40:00,68.4,56.0,30.12,NNW,329,0.0,6.0,65,0.00,,,0.00,weatherlink.com 1.10,2013-09-29 16:40:00,
2013-09-29 12:55:00,68.0,56.0,30.11,NW,317,4.0,6.0,66,0.00,,,0.00,weatherlink.com 1.10,2013-09-29 16:55:00,
2013-09-29 13:10:00,68.5,57.0,30.10,NW,320,2.0,5.0,68,0.00,,,0.00,weatherlink.com 1.10,2013-09-29 17:10:00,
2013-09-29 13:25:00,68.5,58.0,30.10,NNW,345,2.0,3.0,69,0.00,,,0.00,weatherlink.com 1.10,2013-09-29 17:25:00,
2013-09-29 13:40:00,69.3,57.0,30.09,NW,315,2.0,6.0,64,0.00,,,0.00,weatherlink.com 1.10,2013-09-29 17:40:00,
2013-09-29 13:55:00,68.9,57.0,30.08,North,350,2.0,5.0,67,0.00,,,0.00,weatherlink.com 1.10,2013-09-29 17:55:00,
2013-09-29 14:10:00,70.7,57.0,30.07,North,9,5.0,6.0,63,0.00,,,0.00,weatherlink.com 1.10,2013-09-29 18:10:00,
2013-09-29 14:25:00,70.5,58.0,30.07,ENE,78,3.0,5.0,64,0.00,,,0.00,weatherlink.com 1.10,2013-09-29 18:25:00,
2013-09-29 14:40:00,69.5,57.0,30.06,SW,224,0.0,3.0,64,0.00,,,0.00,weatherlink.com 1.10,2013-09-29 18:40:00,
2013-09-29 14:55:00,70.2,58.0,30.05,ENE,69,2.0,7.0,65,0.00,,,0.00,weatherlink.com 1.10,2013-09-29 18:55:00,
2013-09-29 15:10:00,70.5,58.0,30.05,NE,36,3.0,6.0,64,0.00,,,0.00,weatherlink.com 1.10,2013-09-29 19:10:00,
2013-09-29 15:25:00,70.3,57.0,30.04,SE,133,1.0,5.0,62,0.00,,,0.00,weatherlink.com 1.10,2013-09-29 19:25:00,
2013-09-29 15:40:00,72.0,58.0,30.04,NNE,32,2.0,5.0,61,0.00,,,0.00,weatherlink.com 1.10,2013-09-29 19:40:00,
2013-09-29 15:55:00,69.7,58.0,30.03,East,82,1.0,5.0,67,0.00,,,0.00,weatherlink.com 1.10,2013-09-29 19:55:00,
2013-09-29 16:10:00,72.9,59.0,30.02,ENE,57,2.0,5.0,61,0.00,,,0.00,weatherlink.com 1.10,2013-09-29 20:10:00,
2013-09-29 16:25:00,69.4,60.0,30.02,ENE,74,0.0,6.0,71,0.00,,,0.00,weatherlink.com 1.10,2013-09-29 20:25:00,
2013-09-29 16:40:00,71.4,60.0,30.02,NNE,14,2.0,5.0,67,0.00,,,0.00,weatherlink.com 1.10,2013-09-29 20:40:00,
2013-09-29 16:55:00,71.5,59.0,30.03,ENE,75,2.0,5.0,64,0.00,,,0.00,weatherlink.com 1.10,2013-09-29 20:55:00,
2013-09-29 17:10:00,71.8,62.0,30.03,ESE,109,2.0,7.0,70,0.00,,,0.00,weatherlink.com 1.10,2013-09-29 21:10:00,
2013-09-29 17:25:00,69.5,60.0,30.03,East,79,1.0,5.0,72,0.00,,,0.00,weatherlink.com 1.10,2013-09-29 21:25:00,
2013-09-29 17:40:00,67.9,60.0,30.03,South,173,1.0,2.0,76,0.00,,,0.00,weatherlink.com 1.10,2013-09-29 21:40:00,
2013-09-29 17:55:00,67.7,60.0,30.04,ENE,69,0.0,3.0,76,0.00,,,0.00,weatherlink.com 1.10,2013-09-29 21:55:00,
2013-09-29 18:10:00,67.2,60.0,30.03,ENE,67,0.0,1.0,78,0.00,,,0.00,weatherlink.com 1.10,2013-09-29 22:10:00,
2013-09-29 18:25:00,66.7,60.0,30.04,East,90,0.0,0.0,80,0.00,,,0.00,weatherlink.com 1.10,2013-09-29 22:25:00,
2013-09-29 18:40:00,65.6,60.0,30.04,East,90,0.0,0.0,82,0.00,,,0.00,weatherlink.com 1.10,2013-09-29 22:40:00,
2013-09-29 18:55:00,64.7,59.0,30.03,ENE,61,0.0,0.0,83,0.00,,,0.00,weatherlink.com 1.10,2013-09-29 22:55:00,
2013-09-29 19:10:00,63.8,59.0,30.04,ENE,61,0.0,0.0,85,0.00,,,0.00,weatherlink.com 1.10,2013-09-29 23:10:00,
2013-09-29 19:25:00,62.6,59.0,30.04,ENE,61,0.0,0.0,88,0.00,,,0.00,weatherlink.com 1.10,2013-09-29 23:25:00,
2013-09-29 19:40:00,61.7,59.0,30.04,ENE,61,0.0,0.0,89,0.00,,,0.00,weatherlink.com 1.10,2013-09-29 23:40:00,
2013-09-29 19:55:00,61.3,59.0,30.04,ENE,61,0.0,0.0,91,0.00,,,0.00,weatherlink.com 1.10,2013-09-29 23:55:00,
2013-09-29 20:10:00,60.9,59.0,30.04,ENE,61,0.0,0.0,92,0.00,,,0.00,weatherlink.com 1.10,2013-09-30 00:10:00,
2013-09-29 20:25:00,60.4,58.0,30.04,ENE,61,0.0,0.0,92,0.00,,,0.00,weatherlink.com 1.10,2013-09-30 00:25:00,
2013-09-29 20:40:00,59.6,57.0,30.04,ENE,61,0.0,0.0,92,0.00,,,0.00,weatherlink.com 1.10,2013-09-30 00:40:00,
2013-09-29 20:55:00,59.1,57.0,30.05,ENE,61,0.0,0.0,93,0.00,,,0.00,weatherlink.com 1.10,2013-09-30 00:55:00,
2013-09-29 21:10:00,59.1,57.0,30.05,ENE,61,0.0,0.0,94,0.00,,,0.00,weatherlink.com 1.10,2013-09-30 01:10:00,
2013-09-29 21:25:00,59.3,58.0,30.05,ENE,61,0.0,0.0,94,0.00,,,0.00,weatherlink.com 1.10,2013-09-30 01:25:00,
2013-09-29 21:40:00,59.2,58.0,30.04,ENE,61,0.0,0.0,94,0.00,,,0.00,weatherlink.com 1.10,2013-09-30 01:40:00,
2013-09-29 21:55:00,59.1,57.0,30.04,ENE,61,0.0,0.0,94,0.00,,,0.00,weatherlink.com 1.10,2013-09-30 01:55:00,
2013-09-29 22:10:00,59.1,57.0,30.05,ESE,123,0.0,0.0,94,0.00,,,0.00,weatherlink.com 1.10,2013-09-30 02:10:00,
2013-09-29 22:25:00,59.3,58.0,30.04,ESE,123,0.0,0.0,94,0.00,,,0.00,weatherlink.com 1.10,2013-09-30 02:25:00,
2013-09-29 22:40:00,59.0,57.0,30.04,ESE,123,0.0,0.0,94,0.00,,,0.00,weatherlink.com 1.10,2013-09-30 02:40:00,
2013-09-29 22:55:00,58.9,57.0,30.03,ESE,123,0.0,0.0,94,0.00,,,0.00,weatherlink.com 1.10,2013-09-30 02:55:00,
2013-09-29 23:10:00,59.1,57.0,30.04,ESE,123,0.0,0.0,94,0.00,,,0.00,weatherlink.com 1.10,2013-09-30 03:10:00,
2013-09-29 23:25:00,59.0,57.0,30.04,ESE,123,0.0,0.0,94,0.00,,,0.00,weatherlink.com 1.10,2013-09-30 03:25:00,
2013-09-29 23:40:00,58.7,57.0,30.04,ESE,123,0.0,0.0,94,0.00,,,0.00,weatherlink.com 1.10,2013-09-30 03:40:00,
2013-09-29 23:55:00,58.1,56.0,30.04,ESE,123,0.0,0.0,94,0.00,,,0.00,weatherlink.com 1.10,2013-09-30 03:55:00,